CAPE
0 0 0 0 0 0 0 0 0 55 0 0 0 0 0 0 0 0 20 36 150 500 148 187 658 479 324 188 102 83 55 43 2 0 0 0 0 0 0 0 0 0 0 0 0 0 0 0 0
0 0 0 0 0 0 0 0 1 25 1 0 0 0 0 1 0 1 0 17 108 645 276 116 762 618 540 382 282 217 190 120 79 25 0 0 0 0 0 0 0 0 0 0 0 0 0 2 0
0 0 0 0 0 0 0 3 42 36 0 0 0 0 0 0 0 5 101 64 131 769 443 207 879 844 822 654 539 437 387 293 191 24 0 0 0 0 0 0 0 0 16 69 51 37 19 12 18
0 0 0 0 0 1 2 30 110 21 47 0 0 0 0 0 0 0 30 14 0 304 460 867 909 1014 1033 903 745 632 574 469 250 107 72 53 18 71 129 0 0 21 88 210 265 262 219 143 356
0 0 0 0 0 0 0 0 31 64 30 1 2 0 0 1 0 0 37 34 30 4 364 1172 1046 1178 1222 1200 923 804 734 636 534 442 273 366 382 378 334 250 193 397 592 581 493 415 477 381 353
0 0 0 0 0 0 0 0 0 19 49 49 0 0 0 3 0 0 15 101 9 44 149 1563 1268 1266 1327 1311 1101 953 844 841 819 734 719 671 634 646 625 699 634 862 661 497 348 169 218 605 604
0 0 0 0 0 0 0 1 3 0 13 5 0 0 5 20 25 13 26 94 142 86 82 1909 1434 1364 1578 1437 1208 1104 1016 1016 999 955 1054 978 979 1074 1091 1228 1127 969 785 465 146 104 95 136 438
0 0 0 0 0 0 0 0 0 0 0 15 0 6 2 23 18 3 0 27 93 120 78 1825 1757 1283 1267 1314 1537 1394 1321 1312 1276 1332 1364 1248 1312 1293 1437 1476 1520 1103 777 307 165 106 51 43 212
0 0 0 0 0 0 0 0 0 0 3 19 4 0 0 0 0 0 3 0 8 76 172 760 1967 1900 1438 961 1239 1653 1507 1629 1602 1548 1539 1393 827 565 912 1087 1405 1334 809 416 309 145 125 78 34
0 0 0 0 0 0 0 0 0 0 2 12 2 7 0 6 18 1 11 42 57 16 185 243 373 1653 1658 1036 849 1430 1387 1313 1303 929 970 1111 844 980 841 613 1625 973 764 502 341 188 144 62 0
0 0 0 0 0 2 14 2 2 2 7 29 9 6 8 0 15 10 17 38 47 4 18 376 695 1320 1462 977 859 1647 1317 1115 985 879 991 1454 1465 1333 1049 650 712 710 636 378 568 296 109 94 9
0 0 0 0 0 7 1 2 0 0 13 25 60 46 41 3 12 0 2 17 30 10 185 399 1080 1678 1245 994 994 1803 1711 1303 1094 1082 1539 1521 1688 1572 1067 751 1053 707 639 730 500 267 242 158 474
0 0 0 0 0 6 3 0 0 0 9 4 13 17 9 20 12 7 20 4 47 75 255 551 1640 1493 1869 2007 1124 1563 1778 1510 1320 1565 1683 1716 1475 1255 1329 1161 1343 1279 914 849 800 656 554 333 213
0 0 0 0 0 0 0 0 0 0 1 2 0 0 0 34 27 12 46 96 291 291 378 719 2099 1838 1914 1403 2324 2123 1945 1746 1640 1560 1610 1673 1391 1300 1405 1698 1411 1240 1145 771 825 582 548 275 206
0 0 0 0 0 0 10 0 0 0 0 0 0 0 3 15 14 6 0 197 590 380 662 992 2056 2470 2226 2406 2016 3597 2402 2171 1738 1521 1710 1446 1382 1485 1878 1588 1407 1087 1055 964 758 628 708 525 173
0 0 0 0 0 0 11 3 0 0 0 0 4 10 19 34 16 25 6 136 763 954 633 1657 357 2547 2612 2698 2499 2106 2166 1976 1785 1182 1387 1321 1781 1678 1830 1498 1200 1135 1408 1041 712 591 532 623 389
0 0 0 0 0 0 33 6 0 0 3 0 2 8 6 6 3 58 60 108 439 1040 1939 1730 1883 2608 2643 2934 2721 2359 2882 1792 1325 1362 1181 1371 1500 1529 1496 1262 1270 1450 1104 863 685 562 557 474 410
0 0 0 0 0 4 20 16 0 0 37 22 37 25 0 0 0 41 127 165 411 988 1080 2276 2651 3129 2597 2705 2689 2189 1945 1421 1354 1207 1278 1821 1532 1567 1539 1263 1570 1309 977 935 584 442 476 328 230
0 0 0 0 0 0 26 0 0 0 17 0 19 4 0 0 68 137 78 226 1049 813 957 2329 2755 2992 2464 2442 2054 1538 1345 1131 963 1259 1414 1445 1496 1357 1556 1454 1175 1011 971 701 520 434 417 48 89
0 0 0 0 0 5 21 7 1 0 1 15 4 3 6 3 2 77 256 525 1215 1398 1730 1981 2055 2577 2405 2312 1978 1259 1060 794 948 1029 1498 1507 1298 1223 1420 1367 1159 1065 843 648 527 448 187 97 206
0 0 0 0 0 0 2 14 0 0 0 2 0 0 0 0 0 0 25 1300 1140 1229 1454 1480 1982 2406 2262 1704 1740 2434 1542 1759 1487 1553 1342 1619 1178 1174 1269 995 1130 890 715 557 520 533 523 539 560
0 0 0 0 0 0 0 1 0 0 0 0 2 0 0 0 2 1 96 1125 1169 971 1088 1462 1940 2008 1913 2038 1623 1579 1049 1065 1328 1104 1264 1514 1448 1269 1050 1053 581 729 685 729 714 624 428 439 310
0 0 0 0 0 0 0 0 0 0 0 0 0 0 0 0 13 42 457 1163 900 1000 1146 1493 1666 1562 1808 1870 1447 1575 1718 1610 1524 1125 1658 1451 1297 1030 813 909 939 805 888 736 610 632 436 594 431
0 0 0 0 0 12 0 0 0 0 0 0 0 0 0 2 1 34 1012 993 972 950 1100 1404 1389 1560 1429 1620 2131 1823 1645 1479 1547 1265 1477 1368 1483 1130 1097 781 877 929 853 646 913 727 636 539 492
0 5 0 0 0 0 0 0 0 0 0 0 0 0 0 6 15 824 990 900 902 966 1184 1282 1276 1300 1239 1479 1489 1487 1546 1221 1204 1317 1257 1237 1316 1062 1108 911 904 882 853 812 735 703 728 507 403
0 0 0 0 0 0 0 0 0 0 0 0 0 0 0 82 591 939 940 885 821 1089 1118 1061 1193 1088 1065 1177 1279 1425 1639 1362 1408 1444 1187 1249 1250 1104 983 754 685 812 813 594 783 741 423 419 590
0 2 0 1 0 0 0 0 0 0 0 0 0 0 155 763 943 928 863 846 967 1036 1098 1029 1036 945 980 1056 1316 1416 1458 1533 1389 1350 1247 1234 1194 834 812 670 864 774 700 745 739 416 557 506 376
1 0 0 9 0 0 0 0 0 12 6 29 0 0 665 933 829 767 823 984 974 1013 1113 1093 1007 889 895 990 986 771 1183 1178 1309 1227 1091 919 1063 500 876 907 839 788 641 637 621 548 997 446 266
0 0 7 2 1 0 0 0 221 123 41 0 0 0 640 894 782 852 784 963 923 861 830 1002 845 684 757 834 1215 1207 1226 755 1195 837 974 990 718 790 541 520 901 703 591 458 548 702 337 227 150
2 0 3 0 1 2 0 0 23 6 22 2 0 4 657 798 765 796 826 810 768 791 742 740 621 463 585 620 870 1214 682 698 923 929 983 875 492 563 557 502 605 400 605 872 500 434 605 517 299
CIN
-0 -0 -0 -0 -0 -0 -0 -0 -0 -2 -1 -0 -0 -0 -0 -0 -0 -0 -97 -100 -130 -305 -579 -571 -455 -428 -412 -419 -384 -362 -323 -325 -31 -0 -0 -0 -0 -0 -0 -0 -0 -0 -0 -0 -0 -0 -0 -0 -0
-0 -0 -0 -0 -0 -0 -0 -0 -4 -4 -14 -0 -0 -0 -0 -7 -0 -3 -0 -53 -103 -321 -521 -582 -442 -417 -383 -369 -350 -334 -281 -280 -251 -282 -0 -0 -0 -0 -0 -0 -0 -0 -0 -0 -0 -0 -0 -0 -0
-0 -0 -0 -0 -0 -0 -0 -17 -10 -28 -10 -2 -0 -0 -0 -0 -0 -14 -57 -63 -114 -281 -415 -501 -427 -386 -345 -340 -320 -293 -267 -264 -246 -302 -0 -0 -0 -0 -0 -0 -0 -0 -180 -118 -118 -156 -91 -0 -0
-0 -0 -0 -0 -0 -102 -7 -7 -2 -39 -5 -0 -0 -0 -0 -0 -0 -0 -59 -52 -0 -140 -284 -377 -418 -349 -315 -295 -287 -265 -239 -209 -221 -241 -240 -233 -222 -173 -116 -0 -0 -72 -28 -30 -28 -30 -21 -45 -0
-0 -0 -0 -0 -0 -0 -0 -0 -16 -12 -14 -3 -8 -0 -0 -6 -0 -0 -64 -40 -51 -35 -179 -345 -399 -327 -278 -250 -252 -230 -213 -172 -173 -145 -174 -138 -108 -81 -67 -73 -73 -7 -0 -0 -0 -1 -0 -5 -4
-0 -0 -0 -0 -0 -0 -0 -0 -0 -6 -5 -40 -0 -0 -0 -16 -0 -0 -44 -42 -22 -56 -132 -318 -385 -332 -264 -241 -237 -224 -221 -182 -164 -132 -97 -80 -69 -38 -28 -17 -17 -0 -0 -0 -0 -19 -14 -0 -0
-0 -0 -0 -0 -0 -0 -0 -1 -5 -0 -6 -4 -0 -0 -1 -22 -45 -25 -45 -34 -46 -37 -96 -266 -324 -310 -250 -231 -245 -236 -210 -189 -187 -142 -81 -75 -41 -5 -4 -0 -0 -0 -0 -8 -83 -103 -88 -46 -0
-0 -0 -0 -0 -0 -0 -0 -0 -0 -1 -0 -4 -1 -17 -14 -29 -35 -18 -0 -11 -19 -29 -38 -182 -305 -306 -291 -250 -200 -206 -196 -149 -144 -113 -89 -77 -22 -9 -0 -1 -0 -4 -4 -78 -124 -129 -174 -154 -17
-0 -0 -0 -0 -0 -0 -0 -0 -0 -0 -3 -1 -5 -0 -0 -0 -0 -0 -6 -0 -27 -12 -63 -111 -171 -283 -320 -281 -222 -154 -164 -121 -103 -83 -69 -72 -133 -171 -62 -74 -18 -1 -22 -77 -78 -129 -112 -140 -182
-0 -0 -0 -0 -0 -0 -0 -0 -0 -5 -11 -30 -21 -12 -0 -7 -3 -9 -4 -14 -25 -23 -14 -83 -133 -179 -289 -240 -273 -180 -183 -178 -175 -214 -191 -140 -141 -111 -78 -96 -8 -36 -58 -61 -73 -109 -97 -155 -0
-7 -0 -0 -0 -0 -10 -1 -4 -2 -0 -4 -4 -30 -21 -3 -0 -11 -10 -16 -29 -34 -36 -37 -60 -228 -252 -209 -243 -252 -215 -209 -229 -232 -229 -185 -81 -67 -65 -44 -90 -92 -102 -70 -79 -38 -85 -146 -136 -76
-0 -0 -0 -0 -0 -21 -14 -16 -0 -0 -5 -1 -8 -1 -3 -30 -8 -0 -23 -32 -42 -42 -43 -65 -187 -253 -257 -219 -180 -181 -144 -206 -220 -207 -125 -116 -60 -41 -62 -68 -20 -83 -67 -50 -75 -89 -97 -96 -18
-0 -0 -0 -0 -0 -36 -35 -0 -0 -0 -42 -26 -2 -4 -7 -7 -7 -16 -40 -49 -60 -43 -46 -69 -122 -241 -255 -214 -177 -104 -105 -130 -164 -99 -111 -91 -92 -92 -40 -42 -16 -18 -25 -22 -30 -15 -16 -24 -34
-0 -0 -0 -0 -0 -0 -0 -0 -0 -0 -0 -0 -0 -0 -2 -2 -3 -11 -24 -63 -35 -32 -79 -67 -64 -244 -238 -263 -168 -113 -70 -49 -55 -49 -55 -69 -63 -68 -18 -15 -19 -19 -29 -30 -26 -18 -12 -25 -23
-0 -0 -0 -0 -0 -0 -0 -0 -0 -0 -0 -0 -0 -0 -2 -3 -5 -16 -2 -41 -28 -41 -99 -93 -61 -204 -216 -199 -200 -41 -46 -27 -51 -50 -31 -62 -54 -29 -8 -10 -18 -31 -35 -13 -20 -18 -9 -17 -26
-0 -0 -0 -0 -0 -0 -0 -1 -0 -0 -0 -0 -0 -0 -0 -8 -6 -11 -13 -55 -24 -51 -83 -68 -110 -137 -171 -149 -132 -94 -31 -57 -33 -73 -38 -28 -14 -5 -4 -9 -13 -27 -21 -7 -13 -11 -6 -8 -19
-0 -0 -0 -0 -0 -0 -0 -0 -0 -0 -0 -0 -1 -2 -2 -6 -7 -28 -31 -62 -53 -80 -54 -56 -73 -105 -135 -94 -72 -59 -11 -85 -84 -45 -47 -35 -23 -10 -12 -9 -10 -13 -10 -10 -9 -8 -4 -7 -11
-0 -0 -0 -0 -0 -0 -0 -0 -0 -0 -0 -0 -0 -1 -0 -0 -0 -35 -36 -38 -58 -58 -72 -47 -81 -80 -130 -87 -34 -47 -64 -92 -78 -35 -20 -16 -19 -8 -15 -15 -7 -4 -1 -0 -2 -2 -6 -11 -17
-0 -0 -0 -0 -0 -0 -0 -0 -0 -0 -0 -0 -1 -8 -0 -0 -7 -22 -44 -61 -97 -127 -123 -108 -114 -87 -103 -76 -73 -116 -101 -124 -72 -19 -11 -7 -8 -7 -16 -12 -13 -5 -1 -3 -5 -4 -1 -14 -23
-0 -0 -0 -0 -0 -0 -0 -0 -0 -0 -0 -1 -3 -6 -12 -8 -7 -14 -35 -43 -123 -178 -208 -204 -178 -111 -94 -78 -73 -117 -108 -99 -33 -30 -22 -13 -7 -17 -7 -8 -5 -1 -2 -1 -2 -1 -5 -24 -27
-0 -0 -0 -0 -0 -0 -0 -0 -0 -0 -0 -0 -0 -0 -0 -0 -0 -0 -37 -100 -172 -235 -264 -259 -164 -124 -93 -123 -62 -13 -28 -12 -15 -11 -17 -18 -9 -13 -6 -13 -5 -3 -2 -3 -6 -4 -2 -2 -4
-0 -0 -0 -0 -0 -0 -0 -0 -0 -0 -0 -0 -2 -0 -0 -0 -13 -7 -26 -147 -194 -257 -296 -231 -158 -133 -100 -53 -53 -25 -32 -13 -12 -22 -47 -26 -10 -12 -15 -5 -13 -6 -3 -4 -7 -10 -18 -11 -6
-0 -0 -0 -0 -0 -0 -0 -0 -0 -0 -0 -0 -0 -0 -0 -0 -9 -30 -15 -142 -187 -282 -285 -206 -168 -152 -83 -37 -49 -11 -6 -11 -10 -12 -33 -10 -6 -6 -12 -1 -1 -2 -3 -5 -5 -4 -19 -6 -7
-0 -0 -0 -0 -0 -0 -0 -0 -0 -0 -0 -0 -0 -0 -0 -6 -2 -19 -104 -146 -211 -283 -274 -204 -180 -126 -87 -32 -7 -6 -11 -9 -10 -8 -25 -17 -4 -6 -1 -0 -5 -2 -2 -6 -2 -5 -4 -11 -15
-0 -0 -0 -0 -0 -0 -0 -0 -0 -0 -0 -0 -0 -0 -0 -2 -7 -66 -119 -160 -259 -285 -234 -199 -167 -117 -65 -11 -5 -1 -1 -6 -2 -1 -6 -1 -0 -0 -1 -2 -2 -2 -3 -2 -5 -10 -5 -12 -25
-0 -0 -0 -0 -0 -0 -0 -0 -0 -0 -0 -0 -0 -0 -0 -38 -34 -68 -127 -212 -252 -240 -216 -209 -141 -97 -59 -8 -1 -2 -1 -2 -2 -3 -5 -5 -1 -2 -7 -12 -9 -2 -1 -8 -7 -7 -16 -14 -15
-0 -5 -0 -0 -0 -0 -0 -0 -0 -0 -0 -0 -0 -0 -4 -30 -57 -108 -157 -245 -237 -217 -189 -170 -116 -76 -26 -4 -3 -2 -2 -2 -5 -0 -1 -3 -2 -9 -4 -6 -0 -0 -2 -7 -11 -27 -10 -20 -34
-0 -0 -0 -0 -0 -0 -0 -0 -0 -8 -16 -41 -0 -0 -14 -44 -72 -128 -180 -204 -207 -187 -140 -101 -69 -36 -20 -10 -2 -16 -15 -17 -8 -1 -3 -3 -7 -9 -10 -2 -1 -1 -2 -4 -13 -16 -4 -29 -50
-0 -0 -0 -0 -0 -0 -0 -0 -2 -29 -8 -0 -0 -22 -31 -44 -80 -131 -175 -180 -184 -175 -141 -71 -50 -48 -35 -15 -4 -23 -18 -17 -11 -5 -2 -3 -1 -5 -6 -15 -1 -2 -6 -11 -16 -14 -39 -42 -49
-0 -0 -0 -0 -0 -0 -0 -0 -20 -39 -48 -27 -0 -92 -55 -58 -97 -129 -161 -180 -183 -141 -112 -68 -61 -85 -49 -31 -20 -11 -28 -35 -16 -4 -2 -4 -3 -22 -10 -18 -6 -14 -7 -2 -2 -11 -7 -18 -21
Wind_Speed
nan nan nan nan nan nan nan nan nan nan nan nan nan nan nan nan nan nan nan nan 47 49 51 52 55 56 57 56 54 nan nan nan nan nan nan nan nan nan nan nan nan nan nan nan nan nan nan nan nan
nan nan nan nan nan nan nan nan nan nan nan nan nan nan nan nan nan nan nan nan 52 51 49 51 55 58 61 59 54 50 45 42 nan nan nan nan nan nan nan nan nan nan nan nan nan nan nan nan nan
nan nan nan nan nan nan nan nan nan nan nan nan nan nan nan nan nan nan 38 nan 52 48 48 50 57 57 59 61 53 48 47 44 46 nan nan nan nan nan nan nan nan nan nan nan nan nan nan nan nan
nan nan nan nan nan nan nan nan 21 nan nan nan nan nan nan nan nan nan nan nan nan 51 49 51 57 56 58 61 55 48 46 43 46 41 nan nan nan nan 38 nan nan nan nan 24 19 14 17 21 23
nan nan nan nan nan nan nan nan nan nan nan nan nan nan nan nan nan nan nan nan nan nan 48 53 57 55 58 62 55 48 46 46 45 41 42 45 45 42 41 36 32 29 27 24 23 24 19 18 17
nan nan nan nan nan nan nan nan nan nan nan nan nan nan nan nan nan nan nan 34 nan nan 56 51 58 59 58 60 51 48 48 51 46 44 45 45 45 44 41 36 31 26 25 22 21 20 20 21 21
nan nan nan nan nan nan nan nan nan nan nan nan nan nan nan nan nan nan nan nan 45 nan nan 48 48 54 59 54 47 47 46 50 48 48 47 47 47 44 38 33 31 32 28 22 20 19 nan 16 19
nan nan nan nan nan nan nan nan nan nan nan nan nan nan nan nan nan nan nan nan nan 61 nan 73 49 53 55 51 46 47 49 48 48 50 48 50 45 39 37 35 35 35 29 24 23 20 nan nan 17
nan nan nan nan nan nan nan nan nan nan nan nan nan nan nan nan nan nan nan nan nan nan 57 75 71 47 55 52 45 45 51 50 48 47 46 46 37 38 39 40 39 33 29 29 27 24 22 nan nan
nan nan nan nan nan nan nan nan nan nan nan nan nan nan nan nan nan nan nan nan nan nan 37 61 65 57 50 51 45 43 43 44 44 43 40 42 38 37 38 41 44 40 39 31 26 27 23 nan nan
nan nan nan nan nan nan nan nan nan nan nan nan nan nan nan nan nan nan nan nan nan nan nan 40 62 60 55 50 42 39 39 41 41 42 41 46 44 40 36 37 36 34 32 33 32 30 26 nan nan
nan nan nan nan nan nan nan nan nan nan nan nan nan nan nan nan nan nan nan nan nan nan 32 28 57 61 54 46 42 37 37 39 39 42 47 48 42 47 37 37 35 38 36 36 30 28 27 23 22
nan nan nan nan nan nan nan nan nan nan nan nan nan nan nan nan nan nan nan nan nan nan 34 32 49 59 52 41 41 38 37 39 39 42 47 55 46 43 41 40 35 38 35 32 29 30 28 25 26
nan nan nan nan nan nan nan nan nan nan nan nan nan nan nan nan nan nan nan nan 39 38 36 34 44 56 45 37 37 39 39 42 42 42 47 53 55 44 42 41 39 38 38 34 30 29 27 22 24
nan nan nan nan nan nan nan nan nan nan nan nan nan nan nan nan nan nan nan 38 41 39 36 38 48 50 39 36 33 36 38 42 43 44 49 50 45 46 42 42 42 41 37 33 31 27 28 25 22
nan nan nan nan nan nan nan nan nan nan nan nan nan nan nan nan nan nan nan 36 41 36 38 40 40 43 35 34 30 33 37 42 43 42 46 51 51 49 44 43 42 43 39 35 33 30 30 29 28
nan nan nan nan nan nan nan nan nan nan nan nan nan nan nan nan nan nan nan 35 39 38 39 41 40 41 35 35 30 31 40 41 40 43 46 50 50 50 46 43 42 42 40 34 32 29 28 27 28
nan nan nan nan nan nan nan nan nan nan nan nan nan nan nan nan nan nan 48 35 34 44 41 37 35 39 35 33 32 33 36 37 38 43 46 51 49 48 45 43 42 42 38 35 31 28 29 28 26
nan nan nan nan nan nan nan nan nan nan nan nan nan nan nan nan nan 38 nan 31 46 36 39 36 35 34 35 32 33 34 38 39 39 43 45 46 48 46 46 44 41 40 36 35 32 32 29 nan nan
nan nan nan nan nan nan nan nan nan nan nan nan nan nan nan nan nan nan 37 31 40 35 39 33 31 31 33 33 33 37 41 42 40 41 43 44 45 44 44 41 39 40 37 32 29 26 22 nan 24
nan nan nan nan nan nan nan nan nan nan nan nan nan nan nan nan nan nan nan 47 39 33 31 31 29 33 32 36 36 40 39 38 37 40 40 40 41 41 40 36 37 33 25 22 20 21 20 18 17
nan nan nan nan nan nan nan nan nan nan nan nan nan nan nan nan nan nan nan 46 34 29 27 29 30 32 31 35 40 40 37 37 35 34 40 40 35 34 33 30 24 23 22 19 21 16 13 14 10
nan nan nan nan nan nan nan nan nan nan nan nan nan nan nan nan nan nan 28 42 29 27 26 26 28 29 31 37 39 35 32 30 32 34 38 35 33 31 26 24 21 18 14 11 8 6 4 5 4
nan nan nan nan nan nan nan nan nan nan nan nan nan nan nan nan nan nan 47 32 27 24 25 26 28 30 38 32 34 29 29 28 29 28 31 30 29 22 17 18 14 10 8 8 5 5 5 4 6
nan nan nan nan nan nan nan nan nan nan nan nan nan nan nan nan nan 47 33 24 21 25 25 25 30 38 34 29 31 27 28 27 25 24 25 25 22 17 16 11 7 6 8 4 5 7 3 3 5
nan nan nan nan nan nan nan nan nan nan nan nan nan nan nan nan 37 26 23 20 22 21 23 28 34 34 30 31 26 26 28 22 23 24 21 21 18 14 11 8 7 8 7 7 9 8 8 5 2
nan nan nan nan nan nan nan nan nan nan nan nan nan nan 21 22 21 23 20 19 20 20 25 31 31 31 29 25 25 25 24 23 24 26 20 16 13 9 9 7 8 5 6 9 11 9 10 2 4
nan nan nan nan nan nan nan nan nan nan nan nan nan nan 24 20 24 19 20 18 18 23 25 29 29 29 23 23 21 22 24 23 24 20 16 12 8 6 10 7 5 4 4 8 11 10 13 11 2
nan nan nan nan nan nan nan nan 9 35 nan nan nan nan 25 18 18 20 17 18 22 25 28 26 27 23 21 21 21 23 23 20 22 13 12 10 4 4 7 4 5 4 6 8 15 14 8 8 4
nan nan nan nan nan nan nan nan nan nan nan nan nan nan 26 23 18 17 17 20 24 26 26 23 23 21 20 20 25 24 18 20 16 10 11 8 2 3 4 8 3 3 3 3 13 20 8 9 5
Wind_Direction
nan nan nan nan nan nan nan nan nan nan nan nan nan nan nan nan nan nan nan nan 307 311 317 323 324 327 328 330 334 nan nan nan nan nan nan nan nan nan nan nan nan nan nan nan nan nan nan nan nan
nan nan nan nan nan nan nan nan nan nan nan nan nan nan nan nan nan nan nan nan 315 316 321 324 329 331 331 333 336 334 332 331 nan nan nan nan nan nan nan nan nan nan nan nan nan nan nan nan nan
nan nan nan nan nan nan nan nan nan nan nan nan nan nan nan nan nan nan 306 nan 307 310 319 325 331 332 332 334 337 336 336 335 338 nan nan nan nan nan nan nan nan nan nan nan nan nan nan nan nan
nan nan nan nan nan nan nan nan 285 nan nan nan nan nan nan nan nan nan nan nan nan 314 321 321 327 332 334 337 337 338 338 334 335 336 nan nan nan nan 322 nan nan nan nan 295 282 270 265 261 253
nan nan nan nan nan nan nan nan nan nan nan nan nan nan nan nan nan nan nan nan nan nan 324 325 330 333 337 337 338 338 337 337 338 338 336 333 329 327 325 325 324 322 312 302 277 269 256 243 244
nan nan nan nan nan nan nan nan nan nan nan nan nan nan nan nan nan nan nan 307 nan nan 317 328 333 334 337 339 339 339 338 339 340 341 339 333 330 327 326 324 326 326 314 305 292 274 258 251 244
nan nan nan nan nan nan nan nan nan nan nan nan nan nan nan nan nan nan nan nan 314 nan nan 320 330 334 337 342 340 336 341 340 340 342 339 335 332 330 326 325 325 324 321 312 298 287 nan 263 249
nan nan nan nan nan nan nan nan nan nan nan nan nan nan nan nan nan nan nan nan nan 328 nan 317 329 332 335 339 340 335 339 341 340 339 338 334 334 332 332 333 331 332 328 322 316 307 nan nan 270
nan nan nan nan nan nan nan nan nan nan nan nan nan nan nan nan nan nan nan nan nan nan 324 319 322 333 334 334 332 334 337 338 339 338 337 332 332 332 335 338 333 330 326 324 323 317 310 nan nan
nan nan nan nan nan nan nan nan nan nan nan nan nan nan nan nan nan nan nan nan nan nan 310 318 320 327 331 327 325 327 326 327 332 331 329 329 333 330 335 311 324 323 325 326 323 318 310 nan nan
nan nan nan nan nan nan nan nan nan nan nan nan nan nan nan nan nan nan nan nan nan nan nan 311 314 319 329 324 314 315 314 322 325 329 323 324 328 326 320 320 318 315 322 311 312 307 296 nan nan
nan nan nan nan nan nan nan nan nan nan nan nan nan nan nan nan nan nan nan nan nan nan 297 292 310 308 323 314 309 316 311 320 322 324 327 331 319 316 317 319 313 316 313 313 307 302 297 294 283
nan nan nan nan nan nan nan nan nan nan nan nan nan nan nan nan nan nan nan nan nan nan 296 296 301 306 314 304 306 316 315 318 322 322 317 319 319 317 317 319 313 307 303 303 305 298 286 279 273
nan nan nan nan nan nan nan nan nan nan nan nan nan nan nan nan nan nan nan nan 291 290 295 303 299 304 308 304 302 306 312 315 320 309 314 315 311 315 316 316 314 309 304 300 290 291 285 284 281
nan nan nan nan nan nan nan nan nan nan nan nan nan nan nan nan nan nan nan 290 284 283 305 309 296 302 305 303 302 296 304 303 309 306 307 316 317 316 314 312 308 307 304 297 292 286 286 280 275
nan nan nan nan nan nan nan nan nan nan nan nan nan nan nan nan nan nan nan 281 274 284 307 305 296 299 304 299 302 299 297 300 299 301 304 312 312 314 313 310 308 309 302 298 294 288 282 275 271
nan nan nan nan nan nan nan nan nan nan nan nan nan nan nan nan nan nan nan 285 285 294 306 294 291 295 302 300 301 299 293 296 297 299 303 308 311 312 311 307 306 299 301 302 294 288 281 272 271
nan nan nan nan nan nan nan nan nan nan nan nan nan nan nan nan nan nan 281 274 277 286 287 289 282 291 301 300 301 298 295 298 299 300 301 306 308 310 306 306 304 301 301 296 289 289 284 277 269
nan nan nan nan nan nan nan nan nan nan nan nan nan nan nan nan nan 281 nan 282 278 285 280 278 279 286 294 300 305 299 298 295 298 301 305 305 304 305 306 305 301 301 299 299 292 284 284 nan nan
nan nan nan nan nan nan nan nan nan nan nan nan nan nan nan nan nan nan 293 270 280 275 274 272 279 287 296 302 300 299 304 306 303 303 304 304 306 304 304 303 301 301 299 297 295 292 283 nan 275
nan nan nan nan nan nan nan nan nan nan nan nan nan nan nan nan nan nan nan 273 277 264 268 271 286 291 298 298 299 305 303 301 300 298 298 301 301 302 305 305 304 303 301 300 298 292 295 282 271
nan nan nan nan nan nan nan nan nan nan nan nan nan nan nan nan nan nan nan 274 272 263 264 278 287 292 298 302 302 303 301 303 300 302 294 297 304 307 303 306 309 312 310 302 299 294 288 278 275
nan nan nan nan nan nan nan nan nan nan nan nan nan nan nan nan nan nan 271 277 267 263 274 285 287 298 298 299 304 303 307 302 299 297 303 304 305 304 304 309 315 314 318 332 345 338 325 298 285
nan nan nan nan nan nan nan nan nan nan nan nan nan nan nan nan nan nan 267 280 258 269 284 285 294 298 296 305 303 309 306 289 294 300 299 309 308 309 319 314 321 331 348 20 17 31 17 5 11
nan nan nan nan nan nan nan nan nan nan nan nan nan nan nan nan nan 266 283 257 266 284 287 291 298 296 307 307 302 300 295 298 301 300 308 310 308 326 320 327 327 343 8 349 15 8 37 29 40
nan nan nan nan nan nan nan nan nan nan nan nan nan nan nan nan 279 271 255 264 285 289 295 299 301 307 311 309 305 304 301 303 299 306 306 306 319 321 349 345 336 358 0 10 27 23 21 31 66
nan nan nan nan nan nan nan nan nan nan nan nan nan nan 292 281 250 256 257 278 281 290 302 305 310 312 311 307 305 305 299 296 304 308 297 312 308 343 352 317 342 348 28 38 14 350 2 344 163
nan nan nan nan nan nan nan nan nan nan nan nan nan nan 277 294 269 269 274 277 280 295 305 314 312 309 310 309 313 309 302 295 304 303 302 306 315 336 306 320 327 324 15 13 352 353 2 31 98
nan nan nan nan nan nan nan nan 238 286 nan nan nan nan 286 273 274 271 271 277 287 304 313 311 309 311 313 307 304 305 304 304 305 294 297 299 275 297 312 325 310 334 355 358 10 17 20 7 46
nan nan nan nan nan nan nan nan nan nan nan nan nan nan 281 271 271 272 283 293 306 316 313 312 307 312 315 315 310 310 310 298 291 301 306 312 314 265 24 357 329 327 289 1 19 9 22 12 41